EW2964 Weather Reports


Display with metric or nautical units.
time (UTC)temp
F
wind
direction
speed
MPH
gust
MPH
rain 1hr
in
rain 24hr
in
rain mn
in
humidity
%
barometer
mb
20260904164903 85 286 6.0 10.0 0.00 0.20 0.10 68 1018.3
20260904164520 85 325 4.0 13.0 0.00 0.20 0.10 69 1019.3
20260904164403 85 296 4.0 10.0 0.00 0.20 0.10 69 1018.5
20260904163903 85 305 8.0 13.0 0.00 0.20 0.10 70 1018.5
20260904163403 85 281 7.0 13.0 0.00 0.20 0.10 69 1018.6
20260904163026 85 325 7.0 10.0 0.00 0.20 0.10 71 1019.5
20260904162903 85 258 6.0 10.0 0.00 0.20 0.10 70 1018.7
20260904162403 85 248 6.0 10.0 0.00 0.20 0.10 70 1018.7
20260904161903 84 308 5.0 8.0 0.00 0.20 0.10 71 1018.7
20260904161530 84 285 1.0 11.0 0.00 0.20 0.10 72 1019.6
20260904161403 84 280 4.0 8.0 0.00 0.20 0.10 71 1018.8
20260904160903 84 347 7.0 12.0 0.00 0.20 0.10 72 1018.9
20260904160403 84 10 2.0 9.0 0.00 0.20 0.10 72 1018.8
20260904160014 84 295 6.0 10.0 0.00 0.20 0.10 72 1019.6
20260904155903 84 327 6.0 10.0 0.00 0.20 0.10 72 1018.7
20260904155403 84 250 6.0 8.0 0.00 0.20 0.10 71 1018.8
20260904154903 83 38 2.0 6.0 0.00 0.20 0.10 72 1018.8
20260904154516 83 308 4.0 11.0 0.00 0.20 0.10 72 1019.6
20260904154403 83 311 3.0 8.0 0.00 0.20 0.10 72 1018.7
20260904153403 84 338 5.0 9.0 0.00 0.20 0.10 74 1018.7
20260904153025 83 19 2.0 12.0 0.00 0.20 0.10 76 1019.6
20260904152403 83 326 7.0 12.0 0.00 0.20 0.10 73 1018.7
20260904151903 83 298 3.0 9.0 0.00 0.20 0.10 75 1018.7
20260904151528 82 316 5.0 9.0 0.00 0.20 0.10 76 1019.5
20260904151403 83 334 5.0 7.0 0.00 0.20 0.10 73 1018.7
20260904150903 83 286 5.0 9.0 0.00 0.20 0.10 75 1018.7
20260904150403 82 299 3.0 7.0 0.00 0.20 0.10 76 1018.7
20260904150035 81 23 2.0 8.0 0.00 0.20 0.10 81 1019.6
20260904145903 81 15 5.0 8.0 0.00 0.20 0.10 78 1018.8
20260904145403 80 168 2.0 3.0 0.00 0.20 0.10 84 1018.8
20260904144903 79 51 2.0 6.0 0.00 0.20 0.10 84 1018.9
20260904144513 78 136 2.0 6.0 0.00 0.20 0.10 87 1019.7
20260904144403 78 93 4.0 5.0 0.00 0.20 0.10 86 1018.9
20260904143903 78 151 5.0 6.0 0.00 0.20 0.10 87 1019.0
20260904143403 77 143 2.0 6.0 0.00 0.20 0.10 88 1019.0
20260904143019 76 123 1.0 4.0 0.00 0.20 0.10 91 1019.8
20260904142903 76 91 2.0 3.0 0.00 0.20 0.10 89 1019.0
20260904142403 76 93 2.0 5.0 0.00 0.20 0.10 90 1019.1
20260904141903 75 116 1.0 5.0 0.00 0.20 0.10 91 1019.2
20260904141524 74 131 2.0 6.0 0.00 0.20 0.10 92 1020.0
20260904141403 75 123 3.0 5.0 0.00 0.20 0.10 91 1019.2
20260904140903 75 107 4.0 6.0 0.00 0.20 0.10 92 1019.1
20260904140403 74 76 3.0 5.0 0.00 0.20 0.10 94 1019.2
20260904140036 73 67 2.0 4.0 0.00 0.20 0.10 95 1019.9
20260904135903 74 53 2.0 5.0 0.00 0.20 0.10 94 1019.1
20260904135403 73 60 0.0 1.0 0.00 0.20 0.10 96 1019.2
20260904134903 72 109 1.0 2.0 0.00 0.20 0.10 96 1019.1
20260904134536 71 304 0.0 3.0 0.00 0.20 0.10 98 1020.0
20260904134403 72 304 1.0 2.0 0.00 0.20 0.10 98 1019.2
20260904133903 71 214 1.0 3.0 0.00 0.20 0.10 99 1019.4
20260904133403 71 311 1.0 3.0 0.00 0.20 0.10 100 1019.2
20260904133017 70 311 0.0 3.0 0.00 0.20 0.10 98 1020.0
20260904132903 70 311 1.0 3.0 0.00 0.20 0.10 96 1019.3
20260904132403 70 311 2.0 3.0 0.00 0.20 0.10 96 1019.3
20260904131903 70 317 2.0 5.0 0.00 0.20 0.10 100 1019.4
20260904131520 69 263 1.0 4.0 0.00 0.20 0.10 98 1020.1
20260904131403 70 305 2.0 5.0 0.00 0.20 0.10 96 1019.4
20260904130903 70 318 2.0 5.0 0.00 0.20 0.10 99 1019.5
20260904130403 70 309 2.0 5.0 0.00 0.20 0.10 100 1019.6
20260904130031 69 310 2.0 4.0 0.00 0.20 0.10 99 1020.2
20260904125903 69 302 3.0 5.0 0.00 0.20 0.10 100 1019.7
20260904125403 69 244 2.0 3.0 0.00 0.20 0.10 100 1019.7
20260904124903 69 293 1.0 2.0 0.00 0.20 0.10 100 1019.7
20260904124530 68 302 0.0 0.0 0.00 0.20 0.10 99 1020.3
20260904124404 69 150 0.0 0.0 0.00 0.20 0.10 100 1019.8
20260904123903 68 150 0.0 0.0 0.00 0.20 0.10 100 1019.7
20260904123403 68 96 0.0 1.0 0.00 0.20 0.10 100 1019.8
20260904123034 68 96 0.0 2.0 0.00 0.20 0.10 99 1020.5
20260904122903 68 96 0.0 1.0 0.00 0.20 0.10 100 1019.6
20260904122403 68 96 1.0 5.0 0.00 0.20 0.10 100 1019.6
20260904121517 67 126 1.0 5.0 0.00 0.20 0.10 99 1020.3
20260904121403 68 101 2.0 5.0 0.00 0.20 0.10 100 1019.6
20260904120903 68 95 2.0 5.0 0.00 0.20 0.10 100 1019.6
20260904120403 67 179 3.0 5.0 0.00 0.20 0.10 100 1019.6
20260904120026 67 130 3.0 8.0 0.00 0.20 0.10 99 1020.3
20260904115903 67 110 5.0 6.0 0.00 0.20 0.10 100 1019.4
20260904114903 66 124 5.0 8.0 0.00 0.20 0.10 100 1019.2
20260904114530 66 98 0.0 4.0 0.00 0.20 0.10 98 1020.0
20260904114403 66 5 0.0 0.0 0.00 0.20 0.10 100 1019.1
20260904113902 66 319 0.0 0.0 0.00 0.20 0.10 100 1019.0
20260904113403 66 319 0.0 0.0 0.00 0.20 0.10 100 1018.9
20260904113030 66 319 0.0 0.0 0.00 0.20 0.10 98 1019.7
20260904112903 66 319 0.0 0.0 0.00 0.20 0.10 100 1018.9
20260904112403 66 319 0.0 0.0 0.00 0.20 0.10 100 1019.0
20260904111903 66 319 0.0 0.0 0.00 0.20 0.10 100 1018.9
20260904111533 66 259 0.0 1.0 0.00 0.20 0.10 98 1019.8
20260904111403 66 259 0.0 0.0 0.00 0.20 0.10 100 1019.0
20260904110903 66 259 0.0 1.0 0.00 0.20 0.10 100 1019.0
20260904110403 66 259 1.0 2.0 0.00 0.20 0.10 100 1019.0
20260904110022 66 333 0.0 0.0 0.00 0.20 0.10 98 1019.8
20260904104528 66 333 0.0 0.0 0.01 0.20 0.10 98 1019.7
20260904104403 66 333 0.0 0.0 0.01 0.20 0.10 100 1018.7
20260904103904 66 333 0.0 0.0 0.01 0.20 0.10 100 1018.7
20260904103403 66 333 0.0 0.0 0.01 0.20 0.10 97 1018.5
20260904103028 66 333 0.0 0.0 0.01 0.20 0.10 98 1019.5
20260904102903 66 333 0.0 0.0 0.01 0.20 0.10 96 1018.5
20260904102403 66 333 0.0 2.0 0.01 0.20 0.10 96 1018.6
20260904101903 66 335 1.0 3.0 0.01 0.20 0.10 97 1018.6
20260904101534 66 268 0.0 0.0 0.01 0.20 0.10 98 1019.5
20260904101403 66 268 0.0 0.0 0.01 0.20 0.10 100 1018.7
20260904100403 66 268 0.0 0.0 0.01 0.20 0.10 96 1018.7
20260904100036 66 268 0.0 0.0 0.01 0.20 0.10 98 1019.5
20260904095903 66 268 0.0 0.0 0.01 0.20 0.10 96 1018.7
20260904094903 66 268 0.0 1.0 0.00 0.19 0.09 98 1018.6
20260904094525 66 268 0.0 1.0 0.00 0.19 0.09 98 1019.6
20260904094403 66 268 0.0 1.0 0.00 0.19 0.09 99 1018.6
20260904093903 66 268 0.0 0.0 0.00 0.19 0.09 100 1018.5
20260904093027 66 268 0.0 3.0 0.00 0.19 0.09 98 1019.4
20260904092903 67 268 1.0 2.0 0.00 0.19 0.09 100 1018.4
20260904092403 67 277 1.0 3.0 0.00 0.19 0.09 100 1018.4
20260904091528 66 277 1.0 3.0 0.00 0.19 0.09 98 1019.4
20260904091403 66 315 2.0 3.0 0.00 0.19 0.09 96 1018.5
20260904090403 67 300 1.0 3.0 0.00 0.19 0.09 96 1018.4
20260904090016 66 300 0.0 2.0 0.00 0.19 0.09 98 1019.2
20260904085904 67 300 1.0 2.0 0.00 0.19 0.09 96 1018.4
20260904084903 67 300 0.0 0.0 0.00 0.19 0.09 96 1018.4
20260904084521 66 300 0.0 2.0 0.00 0.19 0.09 98 1019.1
20260904084403 67 300 1.0 2.0 0.00 0.19 0.09 96 1018.5
20260904083403 67 300 1.0 2.0 0.00 0.19 0.09 96 1018.4
20260904083031 67 300 0.0 1.0 0.00 0.19 0.09 98 1019.1
20260904082903 67 300 0.0 1.0 0.00 0.19 0.09 96 1018.4
20260904082403 67 300 0.0 2.0 0.00 0.19 0.09 96 1018.4
20260904081903 67 300 1.0 2.0 0.00 0.19 0.09 96 1018.5
20260904081532 67 300 0.0 2.0 0.00 0.19 0.09 98 1019.2
20260904081403 67 300 0.0 2.0 0.00 0.19 0.09 96 1018.5
20260904080904 67 300 0.0 2.0 0.00 0.19 0.09 96 1018.4
20260904080403 67 241 1.0 3.0 0.00 0.19 0.09 96 1018.4
20260904080016 67 241 1.0 3.0 0.00 0.19 0.09 98 1019.1
20260904075903 67 288 1.0 2.0 0.00 0.19 0.09 96 1018.4
20260904075403 67 298 2.0 3.0 0.00 0.19 0.09 96 1018.2
20260904074903 68 281 1.0 2.0 0.00 0.19 0.09 96 1018.2
20260904074537 67 255 0.0 2.0 0.00 0.19 0.09 98 1018.8
20260904074403 68 255 0.0 1.0 0.00 0.19 0.09 96 1018.1
20260904073903 68 255 1.0 2.0 0.00 0.19 0.09 96 1018.2
20260904073402 68 306 1.0 2.0 0.00 0.19 0.09 96 1018.2
20260904073029 67 201 0.0 2.0 0.00 0.19 0.09 98 1018.8
20260904072403 68 201 0.0 2.0 0.00 0.19 0.09 96 1018.1
20260904071903 68 264 0.0 2.0 0.00 0.19 0.09 96 1018.1
20260904071541 68 264 0.0 2.0 0.00 0.19 0.09 98 1018.8
20260904071403 68 294 1.0 2.0 0.00 0.19 0.09 96 1018.0
20260904070403 68 249 1.0 3.0 0.00 0.19 0.09 96 1017.9
20260904070033 68 249 1.0 3.0 0.00 0.19 0.09 98 1018.6
20260904065903 68 245 2.0 3.0 0.00 0.19 0.09 96 1018.0
20260904065403 68 304 1.0 2.0 0.00 0.19 0.09 96 1017.9
20260904064904 68 304 2.0 3.0 0.00 0.19 0.09 96 1017.8
20260904064519 68 304 2.0 3.0 0.00 0.19 0.09 97 1018.5
20260904064403 68 293 2.0 3.0 0.00 0.19 0.09 96 1017.7
20260904063903 68 265 1.0 3.0 0.00 0.19 0.09 96 1018.0
20260904063403 68 309 0.0 0.0 0.00 0.19 0.09 96 1018.0
20260904063006 68 309 0.0 0.0 0.00 0.19 0.09 97 1018.7
20260904062904 68 309 0.0 0.0 0.00 0.19 0.09 96 1018.1
20260904062403 69 309 0.0 0.0 0.00 0.19 0.09 96 1018.1
20260904061903 69 309 0.0 0.0 0.00 0.19 0.09 95 1018.2
20260904061503 68 309 0.0 1.0 0.00 0.19 0.09 97 1018.9
20260904061403 69 309 0.0 1.0 0.00 0.19 0.09 95 1018.3
20260904060903 69 309 0.0 1.0 0.00 0.19 0.09 95 1018.4
20260904060403 69 309 0.0 1.0 0.00 0.19 0.09 95 1018.3
20260904060008 68 309 0.0 1.0 0.00 0.19 0.09 97 1019.1
20260904055904 69 309 0.0 1.0 0.00 0.19 0.09 96 1018.5
20260904054515 69 309 0.0 4.0 0.00 0.19 0.09 97 1019.5
20260904054403 69 309 1.0 3.0 0.00 0.19 0.09 95 1018.9
20260904053903 69 300 2.0 5.0 0.00 0.19 0.09 96 1018.9
20260904053403 69 279 1.0 3.0 0.03 0.19 0.09 95 1019.2
20260904053020 69 282 1.0 3.0 0.09 0.19 0.09 97 1020.0
20260904052903 69 299 1.0 2.0 0.09 0.19 0.09 95 1019.3
20260904051903 69 279 1.0 3.0 0.09 0.19 0.09 95 1019.4
20260904051504 69 298 1.0 4.0 0.09 0.19 0.09 96 1020.2
20260904051404 69 300 3.0 5.0 0.09 0.19 0.09 95 1019.5
20260904050903 69 259 1.0 3.0 0.09 0.19 0.09 94 1019.5
20260904050404 69 316 1.0 2.0 0.09 0.19 0.09 94 1019.7
20260904050006 69 24 0.0 3.0 0.09 0.19 0.09 95 1020.5
20260904045903 69 24 1.0 2.0 0.09 0.19 0.09 94 1019.6
20260904045403 70 136 2.0 3.0 0.09 0.19 0.09 94 1019.6
20260904044904 70 163 1.0 6.0 0.00 0.19 0.09 93 1019.6
20260904044514 69 123 3.0 10.0 0.19 0.19 0.09 95 1020.4
20260904043403 71 72 3.0 6.0 0.06 0.16 0.06 92 1020.3
20260904043018 70 360 3.0 9.0 0.10 0.10 0.00 94 1020.8
20260904042403 71 121 6.0 9.0 0.00 0.10 0.00 92 1019.8
20260904041525 71 134 5.0 11.0 0.10 0.10 0.00 94 1020.5
20260904041403 71 104 6.0 10.0 0.00 0.10 0.00 93 1019.8
20260904040903 72 112 6.0 9.0 0.00 0.10 0.00 94 1019.7
20260904040403 72 134 6.0 10.0 0.00 0.10 0.00 95 1019.7
20260904040005 71 113 5.0 9.0 0.10 0.10 0.00 97 1020.6
20260904035403 71 322 0.0 3.0 0.10 0.10 0.10 95 1019.4
20260904034903 71 322 2.0 5.0 0.09 0.09 0.09 94 1019.4
20260904034510 71 315 3.0 4.0 0.00 0.00 0.00 96 1020.1
20260904034403 71 305 3.0 5.0 0.00 0.00 0.00 94 1019.2
20260904033903 71 322 0.0 2.0 0.00 0.00 0.00 94 1019.2
20260904033403 71 322 0.0 0.0 0.00 0.00 0.00 94 1019.2
20260904033015 71 322 0.0 3.0 0.00 0.00 0.00 96 1020.1
20260904032904 71 322 0.0 2.0 0.00 0.00 0.00 94 1019.2
20260904032403 71 322 2.0 3.0 0.00 0.00 0.00 94 1019.1
20260904031519 71 321 1.0 2.0 0.00 0.00 0.00 95 1019.7
20260904031403 71 275 0.0 2.0 0.00 0.00 0.00 94 1019.0
20260904030403 72 274 1.0 2.0 0.00 0.00 0.00 94 1019.4
20260904030036 71 274 0.0 2.0 0.00 0.00 0.00 95 1020.1
20260904024904 72 274 0.0 1.0 0.00 0.00 0.00 94 1019.4
20260904024530 71 274 0.0 3.0 0.00 0.00 0.00 95 1020.1
20260904024403 72 274 0.0 1.0 0.00 0.00 0.00 94 1019.2
20260904023903 72 295 1.0 3.0 0.00 0.00 0.00 93 1019.4
20260904023403 72 291 2.0 3.0 0.00 0.00 0.00 93 1019.2
20260904023012 71 301 2.0 4.0 0.00 0.00 0.00 95 1020.0
20260904022903 72 309 3.0 5.0 0.00 0.00 0.00 93 1019.2
20260904022403 72 314 2.0 3.0 0.00 0.00 0.00 93 1019.1
20260904021903 72 301 1.0 2.0 0.00 0.00 0.00 93 1019.2
20260904021530 72 294 0.0 2.0 0.00 0.00 0.00 94 1020.0
20260904020903 72 261 1.0 2.0 0.00 0.00 0.00 93 1019.2
20260904020027 72 261 0.0 3.0 0.00 0.00 0.00 94 1019.8
20260904015903 72 261 0.0 3.0 0.00 0.00 0.00 93 1019.2
20260904014904 73 262 1.0 3.0 0.00 0.00 0.00 92 1019.1
20260904014528 72 302 0.0 3.0 0.00 0.00 0.00 94 1019.9
20260904014403 73 302 1.0 2.0 0.00 0.00 0.00 92 1019.2
20260904013903 73 302 1.0 3.0 0.00 0.00 0.00 92 1018.9
20260904013403 73 302 1.0 3.0 0.00 0.00 0.00 92 1018.9
20260904013031 73 302 1.0 3.0 0.00 0.00 0.00 93 1019.6
20260904012903 73 302 1.0 3.0 0.00 0.00 0.00 91 1018.8
20260904012403 73 302 1.0 3.0 0.00 0.00 0.00 91 1018.6
20260904011903 74 302 2.0 3.0 0.00 0.00 0.00 91 1018.5
20260904011514 73 302 2.0 3.0 0.00 0.00 0.00 92 1019.4
20260904010903 74 302 1.0 2.0 0.00 0.00 0.00 90 1018.5
20260904010021 74 302 1.0 3.0 0.00 0.00 0.00 90 1019.4
20260904005903 75 302 1.0 3.0 0.00 0.00 0.00 89 1018.5
20260904005403 75 302 2.0 3.0 0.00 0.00 0.00 88 1018.4
20260904004903 75 302 2.0 5.0 0.00 0.00 0.00 87 1018.4
20260904004529 75 263 2.0 7.0 0.00 0.00 0.00 89 1019.3
20260904004403 75 259 2.0 7.0 0.00 0.00 0.00 87 1018.5
20260904003404 76 296 1.0 3.0 0.00 0.00 0.00 87 1018.5
20260904003031 75 298 0.0 3.0 0.00 0.00 0.00 89 1019.3
20260904002404 76 259 1.0 3.0 0.00 0.00 0.00 87 1018.6
20260904001903 76 272 1.0 3.0 0.00 0.00 0.00 87 1018.6
20260904001537 76 290 1.0 4.0 0.00 0.00 0.00 88 1019.2
20260904001404 76 301 2.0 5.0 0.00 0.00 0.00 86 1018.6
20260904000903 77 313 2.0 5.0 0.00 0.00 0.00 85 1018.6
20260904000403 77 306 2.0 5.0 0.00 0.00 0.00 85 1018.7
20260904000019 77 304 2.0 5.0 0.00 0.00 0.00 86 1019.4
20260903235903 77 272 3.0 5.0 0.00 0.00 0.00 85 1018.7
20260903235403 77 284 4.0 6.0 0.00 0.00 0.00 84 1018.7
20260903234903 78 303 3.0 3.0 0.00 0.00 0.00 84 1018.6
20260903234524 77 295 2.0 4.0 0.00 0.00 0.00 85 1019.3
20260903234403 78 290 3.0 5.0 0.00 0.00 0.00 83 1018.7
20260903233904 78 284 3.0 5.0 0.00 0.00 0.00 83 1018.6
20260903233403 79 298 2.0 3.0 0.00 0.00 0.00 82 1018.6
20260903233033 79 270 1.0 3.0 0.00 0.00 0.00 83 1019.2
20260903232903 80 281 2.0 3.0 0.00 0.00 0.00 80 1018.7
20260903232403 80 316 3.0 3.0 0.00 0.00 0.00 80 1018.5
20260903231903 81 290 2.0 3.0 0.00 0.00 0.00 78 1018.4
20260903231531 81 279 0.0 4.0 0.00 0.00 0.00 79 1019.1
20260903231403 81 270 2.0 5.0 0.00 0.00 0.00 77 1018.4
20260903230403 83 328 3.0 5.0 0.00 0.00 0.00 75 1018.2
20260903230031 82 269 3.0 6.0 0.00 0.00 0.00 75 1018.9
20260903225903 83 264 4.0 6.0 0.00 0.00 0.00 73 1018.1
20260903224518 83 308 2.0 7.0 0.00 0.00 0.00 74 1018.8
20260903224404 84 304 4.0 7.0 0.00 0.00 0.00 72 1018.1
20260903223403 85 314 6.0 7.0 0.00 0.00 0.00 68 1017.6
20260903223027 86 294 3.0 5.0 0.00 0.00 0.00 68 1018.5
20260903222903 86 315 4.0 6.0 0.00 0.00 0.00 66 1017.7
20260903221904 87 296 3.0 5.0 0.00 0.00 0.00 64 1017.3
20260903221543 87 294 2.0 7.0 0.00 0.00 0.00 64 1018.2
20260903221403 87 310 3.0 6.0 0.00 0.00 0.00 62 1017.5
20260903220904 88 320 5.0 7.0 0.00 0.00 0.00 60 1017.3
20260903220403 89 324 3.0 6.0 0.00 0.00 0.00 60 1017.1
20260903220033 88 271 3.0 7.0 0.00 0.00 0.00 60 1017.9
20260903215903 89 333 4.0 6.0 0.00 0.00 0.00 60 1017.0
20260903214533 88 306 1.0 10.0 0.00 0.00 0.00 62 1017.9
20260903214403 89 231 4.0 10.0 0.00 0.00 0.00 60 1017.0
20260903213903 89 249 4.0 7.0 0.00 0.00 0.00 59 1016.9
20260903213403 88 297 2.0 5.0 0.00 0.00 0.00 61 1017.1
20260903213019 88 309 2.0 4.0 0.00 0.00 0.00 60 1018.0
20260903212903 88 311 1.0 5.0 0.00 0.00 0.00 60 1017.3
20260903212403 88 303 2.0 5.0 0.00 0.00 0.00 61 1017.2
20260903211903 88 315 1.0 5.0 0.00 0.00 0.00 63 1017.3
20260903211505 87 334 2.0 6.0 0.00 0.00 0.00 62 1018.0
20260903211403 87 338 5.0 6.0 0.00 0.00 0.00 61 1017.2
20260903210904 87 312 3.0 7.0 0.00 0.00 0.00 62 1017.4
20260903210011 86 323 3.0 9.0 0.00 0.00 0.00 68 1018.4
20260903205903 86 314 5.0 7.0 0.00 0.00 0.00 64 1017.7
20260903205403 86 320 5.0 9.0 0.00 0.00 0.00 65 1017.8
20260903204903 86 317 5.0 6.0 0.00 0.00 0.00 66 1017.9
20260903204512 86 333 2.0 4.0 0.00 0.00 0.00 69 1018.6
20260903204404 86 321 4.0 5.0 0.00 0.00 0.00 66 1017.9
20260903203903 86 313 3.0 6.0 0.00 0.00 0.00 63 1017.9
20260903203404 86 296 3.0 8.0 0.00 0.00 0.00 59 1018.0
20260903203020 86 311 2.0 9.0 0.00 0.00 0.00 61 1019.0
20260903202903 87 300 4.0 6.0 0.00 0.00 0.00 60 1018.1
20260903202403 88 319 5.0 9.0 0.00 0.00 0.00 58 1018.1
20260903201903 89 295 4.0 8.0 0.00 0.00 0.00 57 1018.1
20260903201518 88 262 3.0 7.0 0.00 0.00 0.00 61 1019.1
20260903201403 89 292 3.0 7.0 0.00 0.00 0.00 59 1018.2
20260903200903 88 331 2.0 6.0 0.00 0.00 0.00 60 1018.2
20260903200403 88 310 5.0 8.0 0.00 0.00 0.00 60 1018.5
20260903200015 88 296 2.0 8.0 0.00 0.00 0.00 61 1019.3
20260903195903 88 268 5.0 8.0 0.00 0.00 0.00 59 1018.6
20260903195404 88 327 5.0 7.0 0.00 0.00 0.00 60 1018.6
20260903194903 88 273 6.0 12.0 0.00 0.00 0.00 59 1018.6
20260903194522 88 296 5.0 11.0 0.00 0.00 0.00 59 1019.5
20260903194403 88 277 4.0 7.0 0.00 0.00 0.00 60 1018.6
20260903193903 88 340 2.0 6.0 0.00 0.00 0.00 62 1018.7
20260903193403 87 332 5.0 8.0 0.00 0.00 0.00 60 1018.7
20260903193018 87 309 3.0 9.0 0.00 0.00 0.00 62 1019.6
20260903192903 87 341 5.0 8.0 0.00 0.00 0.00 60 1018.8
20260903192403 87 320 6.0 9.0 0.00 0.00 0.00 61 1018.8
20260903191903 87 341 6.0 9.0 0.00 0.00 0.00 62 1018.9
20260903191519 86 300 5.0 11.0 0.00 0.00 0.00 64 1019.8
20260903190903 87 321 7.0 10.0 0.00 0.00 0.00 63 1019.0
20260903190403 86 309 4.0 9.0 0.00 0.00 0.00 68 1019.1
20260903190022 85 309 5.0 9.0 0.00 0.00 0.00 66 1020.0
20260903185903 86 327 6.0 8.0 0.00 0.00 0.00 67 1019.3
20260903185403 86 330 3.0 6.0 0.00 0.00 0.00 67 1019.3
20260903184903 86 270 3.0 6.0 0.00 0.00 0.00 63 1019.3
20260903184506 85 300 4.0 10.0 0.00 0.00 0.00 65 1020.2
20260903183904 86 290 5.0 10.0 0.00 0.00 0.00 64 1019.5
20260903183403 86 315 3.0 5.0 0.00 0.00 0.00 64 1019.5
20260903183017 85 345 2.0 4.0 0.00 0.00 0.00 67 1020.2
20260903182903 86 325 3.0 5.0 0.00 0.00 0.00 65 1019.4
20260903182403 86 14 2.0 5.0 0.00 0.00 0.00 63 1019.4
20260903181903 86 1 3.0 7.0 0.00 0.00 0.00 64 1019.6
20260903181518 85 331 4.0 6.0 0.00 0.00 0.00 64 1020.4
20260903181404 86 325 4.0 6.0 0.00 0.00 0.00 64 1019.6
20260903180403 85 352 4.0 6.0 0.00 0.00 0.00 65 1019.4
20260903180040 85 360 2.0 9.0 0.00 0.00 0.00 64 1020.3
20260903175903 85 358 3.0 8.0 0.00 0.00 0.00 63 1019.5
20260903175403 86 328 6.0 9.0 0.00 0.00 0.00 62 1019.6
20260903174903 86 310 5.0 8.0 0.00 0.00 0.00 64 1019.7
20260903174524 85 293 3.0 9.0 0.00 0.00 0.00 65 1020.4
20260903174403 86 322 3.0 8.0 0.00 0.00 0.00 64 1019.8
20260903173903 86 332 6.0 9.0 0.00 0.00 0.00 64 1019.8
20260903173403 86 315 3.0 6.0 0.00 0.00 0.00 65 1019.8
20260903173024 86 338 3.0 8.0 0.00 0.00 0.00 64 1020.6
20260903172903 86 320 4.0 8.0 0.00 0.00 0.00 63 1019.9
20260903171903 86 310 6.0 9.0 0.00 0.00 0.00 63 1019.9
20260903171516 85 312 6.0 12.0 0.00 0.00 0.00 66 1020.6
20260903171403 85 307 5.0 10.0 0.00 0.00 0.00 65 1019.9
20260903170903 85 317 6.0 12.0 0.00 0.00 0.00 65 1019.9
20260903170404 86 244 5.0 8.0 0.00 0.00 0.00 63 1020.0
20260903170025 86 281 3.0 8.0 0.00 0.00 0.00 65 1020.8
20260903165903 86 317 5.0 8.0 0.00 0.00 0.00 61 1020.0
20260903165403 86 251 4.0 7.0 0.00 0.00 0.00 64 1020.1